CW7109 Weather Reports


Display with metric or nautical units.
time (UTC)temp
F
wind
direction
speed
MPH
gust
MPH
rain 1hr
in
rain 24hr
in
rain mn
in
humidity
%
barometer
mb
20260505195140 85 288 7.0 10.0 0.00 0.00 0.00 20 1010.3
20260505194140 85 282 0.0 14.0 0.00 0.00 0.00 21 1010.4
20260505193140 85 260 3.0 9.0 0.00 0.00 0.00 22 1010.6
20260505192140 85 261 1.0 7.0 0.00 0.00 0.00 23 1010.7
20260505191140 85 313 6.0 15.0 0.00 0.00 0.00 22 1011.0
20260505190140 85 279 4.0 10.0 0.00 0.00 0.00 24 1011.0
20260505185140 84 355 1.0 8.0 0.00 0.00 0.00 24 1011.1
20260505184140 85 292 5.0 9.0 0.00 0.00 0.00 24 1011.3
20260505183140 84 259 3.0 11.0 0.00 0.00 0.00 23 1011.3
20260505182140 85 215 2.0 10.0 0.00 0.00 0.00 22 1011.5
20260505181140 85 70 1.0 10.0 0.00 0.00 0.00 23 1011.5
20260505180139 84 261 4.0 8.0 0.00 0.00 0.00 22 1011.8
20260505174139 83 250 2.0 11.0 0.00 0.00 0.00 24 1012.0
20260505173139 83 215 3.0 10.0 0.00 0.00 0.00 24 1012.0
20260505172139 83 302 1.0 8.0 0.00 0.00 0.00 24 1012.2
20260505171139 82 252 3.0 12.0 0.00 0.00 0.00 27 1012.3
20260505170139 83 297 1.0 7.0 0.00 0.00 0.00 27 1012.4
20260505165139 82 264 3.0 6.0 0.00 0.00 0.00 29 1012.3
20260505164139 82 281 1.0 8.0 0.00 0.00 0.00 30 1012.4
20260505163139 81 269 0.0 7.0 0.00 0.00 0.00 31 1012.6
20260505161138 80 336 1.0 3.0 0.00 0.00 0.00 34 1012.8
20260505160139 79 249 0.0 9.0 0.00 0.00 0.00 34 1012.9
20260505153138 78 267 1.0 3.0 0.00 0.00 0.00 35 1012.9
20260505152138 78 39 1.0 4.0 0.00 0.00 0.00 36 1013.0
20260505151138 77 41 0.0 7.0 0.00 0.00 0.00 37 1013.0
20260505150137 77 30 0.0 6.0 0.00 0.00 0.00 37 1013.0
20260505140137 74 275 1.0 6.0 0.00 0.00 0.00 40 1013.0
20260505130136 70 269 1.0 4.0 0.00 0.00 0.00 44 1013.4
20260505123136 67 246 2.0 6.0 0.00 0.00 0.00 48 1013.5
20260505122136 66 257 0.0 4.0 0.00 0.00 0.00 50 1013.4
20260505120136 64 217 3.0 4.0 0.00 0.00 0.00 54 1013.3
20260505115135 63 236 0.0 4.0 0.00 0.00 0.00 55 1013.4
20260505114136 62 265 2.0 4.0 0.00 0.00 0.00 56 1013.3
20260505113135 62 248 0.0 4.0 0.00 0.00 0.00 57 1013.2
20260505111136 60 247 1.0 3.0 0.00 0.00 0.00 61 1012.9
20260505110135 59 282 0.0 3.0 0.00 0.00 0.00 63 1012.9
20260505102135 56 252 0.0 1.0 0.00 0.00 0.00 70 1012.4
20260505101135 56 247 0.0 0.0 0.00 0.00 0.00 70 1012.2
20260505100135 56 247 0.0 1.0 0.00 0.00 0.00 69 1012.1
20260505095135 56 247 0.0 0.0 0.00 0.00 0.00 70 1012.1
20260505094135 55 247 0.0 2.0 0.00 0.00 0.00 70 1012.2
20260505092134 55 112 0.0 1.0 0.00 0.00 0.00 71 1012.2
20260505091134 55 66 0.0 0.0 0.00 0.00 0.00 70 1012.2
20260505090134 55 66 0.0 1.0 0.00 0.00 0.00 71 1012.3
20260505085134 55 66 0.0 2.0 0.00 0.00 0.00 71 1012.2
20260505083133 55 302 0.0 0.0 0.00 0.00 0.00 70 1012.3
20260505082133 55 302 0.0 1.0 0.00 0.00 0.00 70 1012.3
20260505081133 55 304 0.0 0.0 0.00 0.00 0.00 70 1012.3
20260505080133 56 304 0.0 0.0 0.00 0.00 0.00 69 1012.3
20260505075133 56 304 0.0 1.0 0.00 0.00 0.00 69 1012.2
20260505074133 56 355 0.0 0.0 0.00 0.00 0.00 69 1012.3
20260505073133 56 355 0.0 0.0 0.00 0.00 0.00 68 1012.2
20260505072133 57 355 0.0 0.0 0.00 0.00 0.00 68 1012.0
20260505071133 57 355 0.0 0.0 0.00 0.00 0.00 67 1012.1
20260505070133 57 355 0.0 0.0 0.00 0.00 0.00 66 1011.9
20260505065133 57 355 0.0 1.0 0.00 0.00 0.00 65 1011.8
20260505064133 58 355 0.0 0.0 0.00 0.00 0.00 64 1011.9
20260505063132 58 355 0.0 0.0 0.00 0.00 0.00 64 1011.9
20260505062132 58 355 0.0 0.0 0.00 0.00 0.00 63 1011.8
20260505061132 58 355 0.0 0.0 0.00 0.00 0.00 64 1011.8
20260505055132 59 355 0.0 0.0 0.00 0.00 0.00 62 1011.9
20260505054132 59 355 0.0 0.0 0.00 0.00 0.00 62 1012.0
20260505053132 59 355 0.0 1.0 0.00 0.00 0.00 61 1012.1
20260505051132 60 340 0.0 0.0 0.00 0.00 0.00 59 1012.0
20260505050201 60 340 0.0 1.0 0.00 0.00 0.00 58 1012.0
20260505035131 62 347 0.0 1.0 0.00 0.00 0.00 53 1011.8
20260505034131 63 347 0.0 0.0 0.00 0.00 0.00 52 1011.9
20260505033131 63 347 0.0 0.0 0.00 0.00 0.00 51 1011.9
20260505032130 63 347 0.0 1.0 0.00 0.00 0.00 50 1011.9
20260505031130 63 347 0.0 1.0 0.00 0.00 0.00 50 1011.9
20260505030200 63 252 0.0 2.0 0.00 0.00 0.00 50 1011.8
20260505025200 63 42 0.0 3.0 0.00 0.00 0.00 50 1011.9
20260505024130 63 253 0.0 0.0 0.00 0.00 0.00 52 1011.9
20260505022200 63 250 0.0 1.0 0.00 0.00 0.00 53 1011.8
20260505021200 63 250 0.0 1.0 0.00 0.00 0.00 53 1012.0
20260505020200 63 250 0.0 0.0 0.00 0.00 0.00 52 1012.0
20260505015200 63 250 0.0 1.0 0.00 0.00 0.00 52 1011.8
20260505013159 64 244 0.0 0.0 0.00 0.00 0.00 51 1011.6
20260505012159 65 244 0.0 0.0 0.00 0.00 0.00 50 1011.6
20260505011159 65 244 0.0 0.0 0.00 0.00 0.00 49 1011.5
20260505010159 66 244 0.0 0.0 0.00 0.00 0.00 47 1011.4
20260505005159 66 244 0.0 0.0 0.00 0.00 0.00 45 1011.4
20260505002159 68 64 0.0 3.0 0.00 0.00 0.00 42 1011.3
20260505001159 68 296 0.0 0.0 0.00 0.00 0.00 41 1011.3
20260505000159 69 296 0.0 1.0 0.00 0.00 0.00 40 1011.2
20260504235158 69 261 0.0 3.0 0.00 0.00 0.00 38 1011.1
20260504234128 70 246 0.0 3.0 0.00 0.00 0.00 37 1011.2
20260504233158 70 306 0.0 4.0 0.00 0.00 0.00 36 1011.3
20260504232128 71 240 0.0 3.0 0.00 0.00 0.00 36 1011.4
20260504231128 71 299 1.0 2.0 0.00 0.00 0.00 35 1011.2
20260504225158 72 203 0.0 4.0 0.00 0.00 0.00 33 1011.0
20260504224128 73 13 0.0 3.0 0.00 0.00 0.00 33 1011.0
20260504223157 73 311 1.0 4.0 0.00 0.00 0.00 31 1010.9
20260504220157 77 309 2.0 7.0 0.00 0.00 0.00 27 1011.0
20260504215157 77 196 1.0 3.0 0.00 0.00 0.00 25 1010.9
20260504214157 77 240 1.0 5.0 0.00 0.00 0.00 25 1010.9
20260504213157 77 243 1.0 7.0 0.00 0.00 0.00 25 1010.9
20260504212127 78 304 0.0 8.0 0.00 0.00 0.00 24 1010.9
20260504210156 78 232 2.0 6.0 0.00 0.00 0.00 24 1010.9
20260504205157 78 250 2.0 7.0 0.00 0.00 0.00 25 1011.1
20260504204126 78 276 3.0 8.0 0.00 0.00 0.00 25 1011.2
20260504203156 78 265 1.0 8.0 0.00 0.00 0.00 25 1011.3
20260504202156 78 280 3.0 9.0 0.00 0.00 0.00 24 1011.4
20260504201156 78 243 2.0 7.0 0.00 0.00 0.00 24 1011.4
20260504200156 77 270 6.0 6.0 0.00 0.00 0.00 24 1011.5